星链-36192(STARLINK-36192)

导读

STARLINK-36192是美国于2025年12月10日发射的星链卫星,归属SpaceX星链星座组网范畴。星链系统依托低轨卫星星座,面向全球提供高速互联网接入服务,弥补地面网络覆盖盲区。该卫星是星链持续扩网的组成单元,助力星链完善全球通信覆盖、提升星座服务容量与稳定性,服务民用通信、远洋航空互联等多元场景。

基本信息
目录编号:
67024
目录名称:
STARLINK-36192
国际标识:
2025-293X
轨道中心:
EARTH
卫星名称:
星链-36192
卫星全名:
星链-36192(STARLINK-36192)
卫星状态:
在轨 (已飞行185 天)
发射日期:
2025-12-10 UTC
国别 :
美国 (US)
星等 :
--
轨道信息
数据来源 国际轨道数据
星历时间: 2026-06-12T14:27:18+0800
23小时前
查看轨道信息
半长轴: 6950.175km
偏心率: 0.0004082
轨道倾角: 70.000°
近地点辐角 268.790°
升交点赤经 216.032°
平近点角 91.279°
近地点: 569.2km
远地点: 574.876km
周期: 96.107分钟
每日圈数: 14.983359
详细信息
固有亮度:
5
最大亮度:
2.5
卫星平台:
Starlink V1.0
覆盖范围:
全球
运营商:
太空探索技术公司
运营商所在国:
美国
制造商(研发单位):
太空探索技术公司
制造商所在国:
美国
使用方式:
暂无
卫星简介
Starlink 计划是 SpaceX 推出的全球卫星互联网项目,通过发射低轨道卫星,为全球尤其是偏远地区提供高速、低延迟的互联网服务。自 2019 年起,Starlink 已部署数千颗卫星,旨在缩小全球数字鸿沟,推动互联网普及。该项目还为军事、航空等行业提供通信支持,带来广泛经济效益。
2D轨道图
3D轨道图
轨道高度分析图
轨道倾角分析图
轨道综合分析图
查看轨道综合分析图